FDX7412 KMEM-KLAX

Flight info

Callsign FDX7412
Flight time N/A
Altitude 38000
Route DUCKZ5 HELAR KLUBB TCC DRK GABBL HLYWD1
Aircraft B77L/H-SDE1E2E3FGHIJ2J3J4J5M1RWXY/LB1D1

Departure

Time N/A
Airport Memphis International Airport (KMEM)

Arrival

Time 2026-04-21 19:28
Airport Los Angeles International Airport (KLAX)
Time Latitude Longitude Altitude Speed Heading
2026-04-21 16:36 35.11309 -94.34206 38282 ft 423 kts 270°
2026-04-21 16:37 35.11348 -94.37737 38280 ft 414 kts 270°
2026-04-21 16:37 35.11422 -94.44740 38279 ft 417 kts 270°
2026-04-21 16:38 35.11488 -94.51421 38274 ft 424 kts 270°
2026-04-21 16:38 35.11559 -94.59055 38272 ft 433 kts 270°
2026-04-21 16:39 35.11623 -94.66257 38269 ft 412 kts 270°
2026-04-21 16:39 35.11680 -94.73255 38279 ft 417 kts 270°
2026-04-21 16:40 35.11733 -94.80347 38277 ft 417 kts 270°
2026-04-21 16:40 35.11783 -94.87441 38275 ft 417 kts 270°
2026-04-21 16:41 35.11821 -94.93340 38271 ft 417 kts 270°
2026-04-21 16:41 35.11869 -95.01602 38261 ft 417 kts 270°
2026-04-21 16:42 35.11906 -95.08630 38258 ft 418 kts 270°
2026-04-21 16:42 35.11940 -95.15710 38256 ft 418 kts 270°
2026-04-21 16:43 35.11969 -95.22865 38258 ft 419 kts 270°
2026-04-21 16:43 35.11994 -95.29933 38258 ft 419 kts 270°
2026-04-21 16:44 35.12015 -95.37099 38256 ft 420 kts 270°
2026-04-21 16:44 35.12031 -95.44188 38254 ft 420 kts 270°
2026-04-21 16:45 35.12171 -95.51343 38254 ft 421 kts 272°
2026-04-21 16:45 35.12485 -95.58445 38253 ft 421 kts 272°
2026-04-21 16:46 35.12783 -95.65552 38254 ft 421 kts 272°
2026-04-21 16:46 35.13069 -95.72671 38263 ft 421 kts 272°
2026-04-21 16:47 35.13349 -95.79817 38265 ft 421 kts 272°
2026-04-21 16:47 35.13622 -95.86941 38269 ft 421 kts 272°
2026-04-21 16:48 35.13890 -95.94065 38269 ft 421 kts 272°
2026-04-21 16:48 35.14153 -96.01207 38268 ft 421 kts 272°
2026-04-21 16:49 35.14415 -96.08422 38257 ft 423 kts 272°
2026-04-21 16:49 35.14671 -96.15589 38251 ft 426 kts 272°
2026-04-21 16:50 35.14925 -96.22827 38253 ft 426 kts 272°
2026-04-21 16:50 35.15174 -96.30053 38250 ft 426 kts 272°
2026-04-21 16:51 35.15420 -96.37298 38244 ft 426 kts 272°
2026-04-21 16:51 35.15661 -96.44495 38239 ft 426 kts 272°
2026-04-21 16:52 35.15897 -96.51733 38234 ft 426 kts 272°
2026-04-21 16:52 35.16092 -96.57777 38231 ft 427 kts 272°
2026-04-21 16:53 35.16359 -96.66238 38229 ft 427 kts 271°
2026-04-21 16:53 35.16582 -96.73480 38231 ft 427 kts 271°
2026-04-21 16:54 35.16801 -96.80688 38230 ft 427 kts 271°
2026-04-21 16:54 35.17016 -96.87924 38229 ft 427 kts 271°
2026-04-21 16:55 35.17228 -96.95194 38229 ft 428 kts 271°
2026-04-21 16:55 35.17435 -97.02434 38229 ft 429 kts 271°
2026-04-21 16:56 35.17639 -97.09752 38228 ft 430 kts 271°
2026-04-21 16:56 35.17838 -97.17007 38227 ft 430 kts 271°
2026-04-21 16:57 35.18033 -97.24289 38226 ft 431 kts 271°
2026-04-21 16:57 35.18224 -97.31605 38222 ft 431 kts 271°
2026-04-21 16:58 35.18410 -97.38911 38217 ft 431 kts 271°
2026-04-21 16:58 35.18591 -97.46201 38209 ft 431 kts 271°
2026-04-21 16:59 35.18770 -97.53537 38204 ft 432 kts 271°
2026-04-21 16:59 35.18944 -97.60857 38200 ft 432 kts 271°
2026-04-21 17:00 35.19114 -97.68187 38206 ft 432 kts 271°
2026-04-21 17:00 35.19250 -97.74268 38209 ft 433 kts 271°
2026-04-21 17:01 35.19441 -97.82946 38213 ft 433 kts 271°
2026-04-21 17:01 35.19598 -97.90314 38216 ft 434 kts 271°
2026-04-21 17:02 35.19751 -97.97661 38218 ft 434 kts 271°
2026-04-21 17:02 35.19898 -98.05013 38221 ft 434 kts 271°
2026-04-21 17:03 35.20043 -98.12424 38211 ft 436 kts 271°
2026-04-21 17:03 35.20182 -98.19815 38210 ft 438 kts 271°
2026-04-21 17:04 35.20318 -98.27220 38217 ft 438 kts 271°
2026-04-21 17:04 35.20449 -98.34647 38213 ft 438 kts 271°
2026-04-21 17:05 35.20575 -98.42087 38207 ft 438 kts 271°
2026-04-21 17:05 35.20697 -98.49513 38204 ft 438 kts 271°
2026-04-21 17:06 35.20816 -98.56959 38198 ft 438 kts 271°
2026-04-21 17:06 35.20929 -98.64371 38191 ft 438 kts 271°
2026-04-21 17:07 35.21019 -98.70564 38191 ft 438 kts 270°
2026-04-21 17:07 35.21141 -98.79235 38185 ft 438 kts 270°
2026-04-21 17:08 35.21241 -98.86658 38182 ft 438 kts 270°
2026-04-21 17:08 35.21336 -98.94111 38181 ft 439 kts 270°
2026-04-21 17:09 35.21470 -99.05246 38181 ft 439 kts 270°
2026-04-21 17:09 35.21553 -99.12703 38182 ft 439 kts 270°
2026-04-21 17:10 35.21632 -99.20123 38176 ft 440 kts 271°
2026-04-21 17:10 35.21708 -99.27604 38172 ft 440 kts 271°
2026-04-21 17:11 35.21777 -99.35050 38168 ft 441 kts 271°
2026-04-21 17:11 35.21843 -99.42568 38166 ft 441 kts 271°
2026-04-21 17:12 35.21904 -99.50053 38162 ft 441 kts 271°
2026-04-21 17:12 35.21960 -99.57521 38160 ft 441 kts 271°
2026-04-21 17:13 35.22012 -99.64994 38157 ft 442 kts 271°
2026-04-21 17:13 35.22060 -99.72523 38160 ft 443 kts 270°
2026-04-21 17:14 35.22103 -99.79993 38159 ft 443 kts 270°
2026-04-21 17:14 35.22141 -99.87521 38159 ft 443 kts 270°
2026-04-21 17:15 35.22175 -99.95076 38159 ft 443 kts 270°
2026-04-21 17:15 35.22204 -100.02553 38160 ft 443 kts 270°
2026-04-21 17:16 35.22228 -100.10068 38157 ft 443 kts 270°
2026-04-21 17:16 35.22248 -100.17606 38144 ft 444 kts 271°
2026-04-21 17:17 35.22263 -100.25143 38130 ft 446 kts 271°
2026-04-21 17:17 35.22273 -100.32721 38130 ft 447 kts 271°
2026-04-21 17:18 35.22279 -100.40304 38133 ft 446 kts 271°
2026-04-21 17:18 35.22280 -100.47865 38134 ft 446 kts 271°
2026-04-21 17:19 35.22276 -100.55462 38137 ft 446 kts 271°
2026-04-21 17:19 35.22268 -100.63017 38138 ft 446 kts 271°
2026-04-21 17:20 35.22255 -100.70537 38143 ft 446 kts 270°
2026-04-21 17:20 35.22237 -100.78101 38147 ft 446 kts 270°
2026-04-21 17:21 35.22214 -100.85675 38152 ft 446 kts 270°
2026-04-21 17:21 35.22187 -100.93231 38158 ft 446 kts 270°
2026-04-21 17:22 35.22155 -101.00822 38165 ft 446 kts 270°
2026-04-21 17:22 35.22118 -101.08388 38170 ft 446 kts 270°
2026-04-21 17:23 35.22077 -101.15987 38172 ft 446 kts 270°
2026-04-21 17:23 35.22030 -101.23539 38173 ft 447 kts 270°
2026-04-21 17:24 35.21979 -101.31119 38175 ft 447 kts 270°
2026-04-21 17:24 35.21924 -101.38725 38171 ft 448 kts 270°
2026-04-21 17:25 35.21864 -101.46325 38149 ft 448 kts 270°
2026-04-21 17:25 35.21798 -101.53921 38128 ft 448 kts 270°
2026-04-21 17:26 35.21728 -101.61549 38130 ft 448 kts 270°
2026-04-21 17:26 35.21653 -101.69140 38139 ft 448 kts 270°
2026-04-21 17:27 35.21574 -101.76720 38145 ft 448 kts 270°
2026-04-21 17:27 35.21490 -101.84331 38149 ft 449 kts 270°
2026-04-21 17:28 35.21401 -101.91945 38151 ft 449 kts 270°
2026-04-21 17:28 35.21306 -101.99580 38153 ft 450 kts 270°
2026-04-21 17:29 35.21207 -102.07197 38156 ft 450 kts 270°
2026-04-21 17:29 35.21104 -102.14791 38163 ft 450 kts 270°
2026-04-21 17:30 35.20995 -102.22466 38170 ft 451 kts 270°
2026-04-21 17:30 35.20881 -102.30122 38173 ft 451 kts 270°
2026-04-21 17:31 35.20763 -102.37749 38168 ft 451 kts 270°
2026-04-21 17:31 35.20640 -102.45395 38164 ft 451 kts 270°
2026-04-21 17:32 35.20512 -102.53037 38166 ft 450 kts 270°
2026-04-21 17:32 35.20379 -102.60680 38170 ft 450 kts 270°
2026-04-21 17:33 35.20241 -102.68305 38173 ft 450 kts 270°
2026-04-21 17:33 35.20099 -102.75977 38175 ft 450 kts 270°
2026-04-21 17:34 35.19953 -102.83569 38171 ft 450 kts 270°
2026-04-21 17:34 35.19801 -102.91204 38163 ft 450 kts 270°
2026-04-21 17:35 35.19644 -102.98861 38148 ft 450 kts 270°
2026-04-21 17:35 35.19484 -103.06450 38137 ft 450 kts 270°
2026-04-21 17:36 35.19317 -103.14091 38131 ft 450 kts 270°
2026-04-21 17:36 35.19146 -103.21728 38128 ft 450 kts 270°
2026-04-21 17:37 35.18972 -103.29310 38129 ft 450 kts 270°
2026-04-21 17:37 35.18791 -103.36940 38131 ft 450 kts 270°
2026-04-21 17:38 35.18605 -103.44600 38130 ft 450 kts 270°
2026-04-21 17:38 35.18415 -103.52239 38128 ft 451 kts 270°
2026-04-21 17:39 35.18221 -103.59840 38125 ft 451 kts 270°
2026-04-21 17:39 35.18076 -103.67482 38123 ft 451 kts 270°
2026-04-21 17:40 35.17941 -103.75143 38122 ft 451 kts 270°
2026-04-21 17:40 35.17799 -103.82794 38129 ft 451 kts 270°
2026-04-21 17:41 35.17651 -103.90428 38142 ft 451 kts 270°
2026-04-21 17:41 35.17497 -103.98104 38158 ft 452 kts 270°
2026-04-21 17:42 35.17339 -104.05735 38170 ft 452 kts 270°
2026-04-21 17:42 35.17174 -104.13416 38186 ft 452 kts 270°
2026-04-21 17:43 35.17006 -104.21049 38192 ft 452 kts 270°
2026-04-21 17:43 35.16832 -104.28707 38177 ft 452 kts 270°
2026-04-21 17:44 35.16654 -104.36334 38156 ft 452 kts 270°
2026-04-21 17:44 35.16471 -104.43996 38141 ft 451 kts 270°
2026-04-21 17:45 35.16283 -104.51636 38138 ft 451 kts 270°
2026-04-21 17:45 35.16091 -104.59283 38145 ft 451 kts 270°
2026-04-21 17:46 35.15894 -104.66918 38156 ft 451 kts 270°
2026-04-21 17:46 35.15691 -104.74551 38170 ft 451 kts 270°
2026-04-21 17:47 35.15485 -104.82187 38180 ft 451 kts 270°
2026-04-21 17:47 35.15272 -104.89836 38186 ft 450 kts 270°
2026-04-21 17:48 35.15057 -104.97454 38194 ft 450 kts 270°
2026-04-21 17:48 35.14836 -105.05069 38206 ft 450 kts 270°
2026-04-21 17:49 35.14610 -105.12717 38231 ft 450 kts 270°
2026-04-21 17:49 35.14380 -105.20325 38256 ft 450 kts 270°
2026-04-21 17:50 35.14145 -105.27932 38271 ft 449 kts 270°
2026-04-21 17:50 35.13905 -105.35553 38284 ft 449 kts 270°
2026-04-21 17:51 35.13661 -105.43169 38271 ft 449 kts 270°
2026-04-21 17:51 35.13412 -105.50770 38257 ft 449 kts 270°
2026-04-21 17:52 35.13158 -105.58388 38243 ft 449 kts 270°
2026-04-21 17:52 35.12899 -105.65996 38233 ft 449 kts 269°
2026-04-21 17:53 35.12680 -105.72317 38246 ft 449 kts 269°
2026-04-21 17:53 35.12368 -105.81197 38251 ft 450 kts 269°
2026-04-21 17:54 35.12095 -105.88814 38231 ft 449 kts 269°
2026-04-21 17:54 35.11818 -105.96404 38210 ft 449 kts 269°
2026-04-21 17:55 35.11536 -106.04008 38219 ft 450 kts 269°
2026-04-21 17:55 35.11247 -106.11661 38268 ft 451 kts 269°
2026-04-21 17:56 35.10954 -106.19293 38294 ft 451 kts 269°
2026-04-21 17:56 35.10657 -106.26871 38301 ft 450 kts 269°
2026-04-21 17:57 35.10355 -106.34500 38294 ft 450 kts 269°
2026-04-21 17:57 35.10049 -106.42108 38288 ft 450 kts 269°
2026-04-21 17:58 35.09739 -106.49706 38301 ft 450 kts 269°
2026-04-21 17:58 35.09420 -106.57372 38299 ft 451 kts 269°
2026-04-21 17:59 35.09101 -106.64953 38276 ft 450 kts 269°
2026-04-21 17:59 35.08772 -106.72628 38250 ft 450 kts 268°
2026-04-21 18:00 35.08443 -106.80220 38229 ft 449 kts 268°
2026-04-21 18:00 35.08109 -106.87804 38227 ft 450 kts 268°
2026-04-21 18:01 35.07768 -106.95440 38212 ft 450 kts 268°
2026-04-21 18:01 35.07423 -107.03047 38202 ft 449 kts 268°
2026-04-21 18:02 35.07075 -107.10637 38214 ft 449 kts 268°
2026-04-21 18:02 35.06721 -107.18224 38231 ft 449 kts 268°
2026-04-21 18:03 35.06364 -107.25790 38245 ft 449 kts 268°
2026-04-21 18:03 35.06000 -107.33409 38271 ft 450 kts 268°
2026-04-21 18:04 35.05634 -107.40984 38301 ft 450 kts 268°
2026-04-21 18:04 35.05259 -107.48622 38326 ft 450 kts 268°
2026-04-21 18:05 35.04883 -107.56190 38318 ft 450 kts 268°
2026-04-21 18:05 35.04499 -107.63821 38307 ft 451 kts 267°
2026-04-21 18:06 35.04110 -107.71455 38305 ft 454 kts 266°
2026-04-21 18:06 35.03713 -107.79134 38291 ft 455 kts 266°
2026-04-21 18:07 35.03312 -107.86816 38318 ft 455 kts 266°
2026-04-21 18:07 35.02906 -107.94497 38360 ft 455 kts 265°
2026-04-21 18:08 35.02496 -108.02178 38393 ft 455 kts 265°
2026-04-21 18:08 35.02081 -108.09837 38396 ft 455 kts 265°
2026-04-21 18:09 35.01662 -108.17489 38388 ft 454 kts 265°
2026-04-21 18:09 35.01238 -108.25154 38362 ft 454 kts 265°
2026-04-21 18:10 35.00809 -108.32807 38345 ft 454 kts 265°
2026-04-21 18:10 35.00374 -108.40488 38333 ft 454 kts 265°
2026-04-21 18:11 34.99934 -108.48174 38320 ft 454 kts 265°
2026-04-21 18:11 34.99490 -108.55831 38306 ft 454 kts 265°
2026-04-21 18:12 34.99045 -108.63432 38291 ft 454 kts 265°
2026-04-21 18:12 34.98591 -108.71107 38276 ft 453 kts 264°
2026-04-21 18:13 34.98132 -108.78770 38259 ft 453 kts 264°
2026-04-21 18:13 34.97670 -108.86412 38252 ft 453 kts 264°
2026-04-21 18:14 34.96972 -108.97815 38244 ft 453 kts 264°
2026-04-21 18:15 34.96497 -109.05468 38243 ft 452 kts 264°
2026-04-21 18:15 34.96019 -109.13083 38246 ft 452 kts 264°
2026-04-21 18:16 34.95536 -109.20723 38246 ft 452 kts 264°
2026-04-21 18:16 34.95049 -109.28348 38243 ft 453 kts 264°
2026-04-21 18:17 34.94556 -109.35965 38232 ft 452 kts 264°
2026-04-21 18:17 34.94060 -109.43568 38220 ft 452 kts 264°
2026-04-21 18:18 34.93560 -109.51171 38228 ft 452 kts 264°
2026-04-21 18:18 34.93051 -109.58817 38232 ft 452 kts 264°
2026-04-21 18:19 34.92541 -109.66423 38221 ft 452 kts 263°
2026-04-21 18:19 34.92025 -109.74040 38204 ft 451 kts 263°
2026-04-21 18:20 34.91504 -109.81663 38191 ft 451 kts 263°
2026-04-21 18:20 34.90982 -109.89226 38189 ft 450 kts 263°
2026-04-21 18:21 34.90454 -109.96806 38185 ft 451 kts 263°
2026-04-21 18:21 34.89920 -110.04420 38182 ft 451 kts 263°
2026-04-21 18:22 34.89384 -110.11978 38194 ft 449 kts 263°
2026-04-21 18:22 34.88842 -110.19557 38201 ft 448 kts 263°
2026-04-21 18:23 34.88300 -110.27064 38196 ft 449 kts 263°
2026-04-21 18:23 34.87751 -110.34611 38188 ft 448 kts 263°
2026-04-21 18:24 34.87196 -110.42169 38196 ft 448 kts 263°
2026-04-21 18:24 34.86639 -110.49690 38211 ft 448 kts 263°
2026-04-21 18:25 34.86075 -110.57251 38229 ft 448 kts 263°
2026-04-21 18:25 34.85508 -110.64794 38247 ft 448 kts 263°
2026-04-21 18:26 34.84934 -110.72346 38251 ft 447 kts 263°
2026-04-21 18:26 34.84362 -110.79816 38251 ft 447 kts 263°
2026-04-21 18:27 34.83782 -110.87334 38263 ft 447 kts 263°
2026-04-21 18:27 34.83196 -110.94872 38280 ft 447 kts 263°
2026-04-21 18:28 34.82610 -111.02345 38299 ft 446 kts 263°
2026-04-21 18:28 34.82016 -111.09855 38323 ft 445 kts 263°
2026-04-21 18:29 34.81421 -111.17337 38349 ft 445 kts 263°
2026-04-21 18:29 34.80821 -111.24801 38364 ft 445 kts 263°
2026-04-21 18:30 34.80219 -111.32239 38346 ft 444 kts 263°
2026-04-21 18:30 34.79609 -111.39719 38391 ft 443 kts 263°
2026-04-21 18:31 34.78997 -111.47163 38329 ft 444 kts 263°
2026-04-21 18:31 34.78382 -111.54599 38265 ft 441 kts 263°
2026-04-21 18:32 34.77759 -111.62067 38297 ft 445 kts 263°
2026-04-21 18:32 34.77135 -111.69503 38240 ft 443 kts 262°
2026-04-21 18:33 34.76504 -111.76955 38188 ft 443 kts 262°
2026-04-21 18:33 34.75874 -111.84341 38147 ft 442 kts 262°
2026-04-21 18:34 34.75238 -111.91756 38100 ft 442 kts 262°
2026-04-21 18:34 34.74595 -111.99186 38061 ft 442 kts 263°
2026-04-21 18:35 34.74056 -112.05381 38064 ft 442 kts 263°
2026-04-21 18:35 34.73300 -112.14005 38130 ft 442 kts 263°
2026-04-21 18:36 34.72646 -112.21405 38207 ft 439 kts 263°
2026-04-21 18:36 34.71993 -112.28749 38255 ft 437 kts 263°
2026-04-21 18:37 34.71334 -112.36093 38258 ft 437 kts 263°
2026-04-21 18:37 34.70674 -112.43422 38259 ft 437 kts 263°
2026-04-21 18:38 34.69950 -112.50680 38229 ft 436 kts 261°
2026-04-21 18:38 34.69134 -112.57974 38196 ft 436 kts 261°
2026-04-21 18:39 34.68310 -112.65280 38186 ft 436 kts 261°
2026-04-21 18:39 34.67491 -112.72501 38190 ft 435 kts 261°
2026-04-21 18:40 34.66663 -112.79760 38185 ft 434 kts 261°
2026-04-21 18:40 34.65967 -112.85822 38176 ft 434 kts 261°
2026-04-21 18:41 34.64993 -112.94257 38157 ft 434 kts 261°
2026-04-21 18:41 34.64150 -113.01517 38136 ft 433 kts 261°
2026-04-21 18:42 34.63311 -113.08708 38098 ft 432 kts 261°
2026-04-21 18:42 34.62468 -113.15890 38062 ft 431 kts 261°
2026-04-21 18:43 34.61617 -113.23113 38027 ft 431 kts 261°
2026-04-21 18:43 34.60769 -113.30261 38004 ft 431 kts 261°
2026-04-21 18:44 34.59917 -113.37413 37985 ft 430 kts 261°
2026-04-21 18:44 34.59058 -113.44588 37966 ft 428 kts 261°
2026-04-21 18:45 34.58199 -113.51718 37994 ft 428 kts 262°
2026-04-21 18:45 34.57341 -113.58816 38017 ft 428 kts 262°
2026-04-21 18:46 34.56471 -113.65964 38023 ft 427 kts 261°
2026-04-21 18:46 34.55603 -113.73075 38021 ft 426 kts 261°
2026-04-21 18:47 34.54733 -113.80153 38014 ft 425 kts 261°
2026-04-21 18:47 34.53864 -113.87196 38115 ft 424 kts 262°
2026-04-21 18:48 34.52986 -113.94281 38088 ft 425 kts 262°
2026-04-21 18:48 34.52112 -114.01290 37984 ft 423 kts 262°
2026-04-21 18:49 34.51174 -114.08315 37997 ft 424 kts 259°
2026-04-21 18:49 34.50132 -114.14159 38031 ft 424 kts 258°
2026-04-21 18:50 34.48693 -114.22247 38044 ft 422 kts 259°
2026-04-21 18:50 34.47466 -114.29182 38030 ft 421 kts 259°
2026-04-21 18:51 34.46249 -114.36079 38018 ft 420 kts 259°
2026-04-21 18:51 34.45227 -114.41853 38011 ft 420 kts 259°
2026-04-21 18:52 34.43806 -114.49873 38003 ft 420 kts 259°
2026-04-21 18:52 34.42571 -114.56819 38006 ft 421 kts 259°
2026-04-21 18:53 34.41347 -114.63679 38012 ft 420 kts 259°
2026-04-21 18:53 34.40109 -114.70596 38029 ft 420 kts 258°
2026-04-21 18:54 34.38870 -114.77496 38037 ft 419 kts 258°
2026-04-21 18:54 34.37634 -114.84355 38031 ft 419 kts 258°
2026-04-21 18:55 34.36601 -114.90073 38024 ft 418 kts 258°
2026-04-21 18:55 34.35150 -114.98072 38013 ft 418 kts 258°
2026-04-21 18:56 34.33902 -115.04931 38009 ft 418 kts 258°
2026-04-21 18:56 34.32651 -115.11781 38013 ft 418 kts 258°
2026-04-21 18:57 34.31401 -115.18600 38016 ft 418 kts 258°
2026-04-21 18:57 34.30139 -115.25465 38017 ft 417 kts 258°
2026-04-21 18:58 34.28884 -115.32269 38022 ft 416 kts 258°
2026-04-21 18:58 34.27622 -115.39092 38030 ft 415 kts 257°
2026-04-21 18:59 34.26366 -115.45856 38034 ft 415 kts 257°
2026-04-21 18:59 34.25104 -115.52626 38040 ft 414 kts 257°
2026-04-21 19:00 34.23835 -115.59419 38042 ft 414 kts 257°
2026-04-21 19:00 34.22572 -115.66155 37788 ft 408 kts 257°
2026-04-21 19:00 34.21941 -115.69515 37279 ft 409 kts 257°
2026-04-21 19:01 34.21310 -115.72874 36669 ft 413 kts 257°
2026-04-21 19:01 34.20674 -115.76242 36069 ft 416 kts 257°
2026-04-21 19:01 34.20028 -115.79646 35359 ft 419 kts 257°
2026-04-21 19:01 34.19384 -115.83053 34615 ft 419 kts 257°
2026-04-21 19:02 34.18736 -115.86467 33924 ft 417 kts 257°
2026-04-21 19:02 34.18093 -115.89862 33271 ft 414 kts 257°
2026-04-21 19:02 34.17450 -115.93240 32635 ft 411 kts 257°
2026-04-21 19:02 34.16817 -115.96572 31987 ft 408 kts 257°
2026-04-21 19:03 34.16182 -115.99904 31333 ft 406 kts 256°
2026-04-21 19:03 34.15548 -116.03226 30730 ft 410 kts 256°
2026-04-21 19:03 34.14899 -116.06618 30338 ft 422 kts 256°
2026-04-21 19:03 34.14237 -116.10075 29943 ft 425 kts 256°
2026-04-21 19:04 34.13575 -116.13526 29508 ft 426 kts 255°
2026-04-21 19:04 34.12911 -116.16983 29078 ft 425 kts 255°
2026-04-21 19:04 34.12243 -116.20455 28624 ft 425 kts 255°
2026-04-21 19:04 34.11583 -116.23881 28146 ft 423 kts 255°
2026-04-21 19:05 34.10912 -116.27354 27637 ft 420 kts 255°
2026-04-21 19:05 34.10258 -116.30744 27162 ft 415 kts 256°
2026-04-21 19:05 34.09823 -116.34157 26692 ft 412 kts 261°
2026-04-21 19:05 34.09499 -116.37566 26227 ft 408 kts 261°
2026-04-21 19:06 34.09168 -116.40962 25786 ft 407 kts 261°
2026-04-21 19:06 34.08828 -116.44342 25340 ft 406 kts 260°
2026-04-21 19:06 34.08480 -116.47726 24875 ft 404 kts 260°
2026-04-21 19:06 34.08133 -116.51059 24380 ft 402 kts 260°
2026-04-21 19:07 34.07782 -116.54375 24003 ft 396 kts 260°
2026-04-21 19:07 34.07433 -116.57664 23771 ft 388 kts 260°
2026-04-21 19:07 34.07108 -116.60820 23471 ft 383 kts 261°
2026-04-21 19:07 34.06814 -116.64036 22843 ft 388 kts 261°
2026-04-21 19:08 34.06521 -116.67261 22204 ft 391 kts 260°
2026-04-21 19:08 34.06222 -116.70527 21593 ft 393 kts 260°
2026-04-21 19:08 34.05921 -116.73788 20888 ft 392 kts 260°
2026-04-21 19:08 34.05620 -116.77042 20271 ft 385 kts 260°
2026-04-21 19:09 34.05328 -116.80203 19886 ft 371 kts 260°
2026-04-21 19:09 34.05049 -116.83190 19595 ft 356 kts 259°
2026-04-21 19:09 34.04776 -116.86124 19484 ft 344 kts 259°
2026-04-21 19:09 34.04504 -116.88983 19272 ft 347 kts 259°
2026-04-21 19:10 34.04167 -116.91832 18848 ft 346 kts 257°
2026-04-21 19:10 34.03780 -116.94700 18375 ft 346 kts 257°
2026-04-21 19:10 34.03396 -116.97569 17855 ft 346 kts 257°
2026-04-21 19:10 34.03021 -117.00414 17386 ft 342 kts 257°
2026-04-21 19:11 34.02655 -117.03209 16994 ft 336 kts 257°
2026-04-21 19:11 34.02319 -117.05974 16703 ft 328 kts 257°
2026-04-21 19:11 34.02005 -117.08671 16520 ft 326 kts 257°
2026-04-21 19:11 34.01687 -117.11371 16304 ft 328 kts 257°
2026-04-21 19:12 34.01474 -117.13176 16127 ft 327 kts 257°
2026-04-21 19:12 34.01044 -117.16805 15749 ft 324 kts 257°
2026-04-21 19:12 34.00726 -117.19474 15460 ft 322 kts 257°
2026-04-21 19:12 34.00409 -117.22119 15178 ft 321 kts 257°
2026-04-21 19:13 34.00091 -117.24775 14885 ft 320 kts 257°
2026-04-21 19:13 33.99773 -117.27434 14536 ft 319 kts 257°
2026-04-21 19:13 33.99462 -117.30038 14205 ft 316 kts 257°
2026-04-21 19:13 33.99149 -117.32646 13892 ft 315 kts 257°
2026-04-21 19:14 33.98843 -117.35266 13608 ft 315 kts 257°
2026-04-21 19:14 33.98537 -117.37871 13321 ft 314 kts 257°
2026-04-21 19:14 33.98235 -117.40459 13026 ft 308 kts 257°
2026-04-21 19:14 33.97935 -117.42992 12739 ft 302 kts 257°
2026-04-21 19:15 33.97643 -117.45459 12464 ft 298 kts 257°
2026-04-21 19:15 33.97369 -117.47950 12182 ft 300 kts 262°
2026-04-21 19:15 33.97543 -117.50460 11916 ft 304 kts 275°
2026-04-21 19:15 33.97957 -117.52935 11665 ft 299 kts 276°
2026-04-21 19:16 33.98393 -117.55347 11419 ft 292 kts 276°
2026-04-21 19:16 33.98819 -117.57714 11172 ft 286 kts 276°
2026-04-21 19:16 33.99231 -117.60045 10933 ft 278 kts 276°
2026-04-21 19:16 33.99630 -117.62292 10707 ft 271 kts 276°
2026-04-21 19:17 34.00394 -117.66604 10278 ft 261 kts 276°
2026-04-21 19:17 34.00598 -117.68745 10056 ft 248 kts 261°
2026-04-21 19:17 34.00446 -117.70774 9784 ft 243 kts 258°
2026-04-21 19:18 34.00253 -117.72781 9478 ft 240 kts 258°
2026-04-21 19:18 34.00059 -117.74767 9184 ft 237 kts 259°
2026-04-21 19:18 33.99868 -117.76728 8904 ft 234 kts 259°
2026-04-21 19:18 33.99678 -117.78657 8627 ft 233 kts 259°
2026-04-21 19:19 33.99488 -117.80581 8344 ft 234 kts 260°
2026-04-21 19:19 33.99295 -117.82553 8052 ft 234 kts 261°
2026-04-21 19:19 33.99107 -117.84487 7793 ft 233 kts 261°
2026-04-21 19:19 33.98920 -117.86416 7544 ft 233 kts 262°
2026-04-21 19:20 33.98732 -117.88355 7292 ft 233 kts 262°
2026-04-21 19:20 33.98544 -117.90276 7045 ft 232 kts 262°
2026-04-21 19:20 33.98355 -117.92201 6833 ft 232 kts 262°
2026-04-21 19:20 33.98163 -117.94158 6622 ft 232 kts 262°
2026-04-21 19:21 33.97973 -117.96080 6408 ft 231 kts 262°
2026-04-21 19:21 33.97783 -117.98006 6192 ft 231 kts 262°
2026-04-21 19:21 33.97590 -117.99915 5976 ft 230 kts 262°
2026-04-21 19:21 33.97390 -118.01830 5758 ft 230 kts 262°
2026-04-21 19:22 33.97200 -118.03720 5546 ft 229 kts 262°
2026-04-21 19:22 33.97018 -118.05597 5337 ft 223 kts 262°
2026-04-21 19:22 33.96837 -118.07470 5057 ft 224 kts 262°
2026-04-21 19:22 33.96655 -118.09326 4775 ft 222 kts 262°
2026-04-21 19:23 33.96474 -118.11172 4493 ft 222 kts 262°
2026-04-21 19:23 33.96294 -118.12991 4212 ft 221 kts 262°
2026-04-21 19:23 33.96117 -118.14768 3937 ft 220 kts 262°
2026-04-21 19:23 33.95934 -118.16591 3655 ft 219 kts 262°
2026-04-21 19:24 33.95750 -118.18422 3369 ft 218 kts 262°
2026-04-21 19:24 33.95574 -118.20186 3086 ft 211 kts 262°
2026-04-21 19:24 33.95405 -118.21891 2793 ft 201 kts 262°
2026-04-21 19:24 33.95228 -118.23504 2614 ft 187 kts 261°
2026-04-21 19:25 33.95046 -118.25066 2408 ft 183 kts 262°
2026-04-21 19:25 33.94927 -118.26533 2174 ft 171 kts 263°
2026-04-21 19:25 33.94793 -118.27944 1910 ft 169 kts 262°
2026-04-21 19:25 33.94659 -118.29309 1669 ft 157 kts 262°
2026-04-21 19:26 33.94519 -118.30578 1423 ft 148 kts 261°
2026-04-21 19:26 33.94388 -118.31777 1151 ft 146 kts 262°
2026-04-21 19:26 33.94269 -118.33018 990 ft 149 kts 260°
2026-04-21 19:26 33.94139 -118.34255 796 ft 150 kts 263°
2026-04-21 19:27 33.94019 -118.35493 572 ft 149 kts 261°
2026-04-21 19:27 33.93895 -118.36729 357 ft 150 kts 261°
2026-04-21 19:27 33.93772 -118.37949 192 ft 142 kts 261°
2026-04-21 19:27 33.93651 -118.39087 113 ft 124 kts 262°
2026-04-21 19:28 33.93561 -118.39988 123 ft 88 kts 263°
2026-04-21 19:28 33.93505 -118.40537 129 ft 44 kts 264°
2026-04-21 19:28 33.93482 -118.40701 130 ft 7 kts 238°
2026-04-21 19:28 33.93441 -118.40724 130 ft 6 kts 184°
2026-04-21 19:29 33.93399 -118.40715 130 ft 5 kts 152°
2026-04-21 19:29 33.93377 -118.40672 129 ft 6 kts 103°
2026-04-21 19:29 33.93373 -118.40610 128 ft 8 kts 81°
2026-04-21 19:29 33.93382 -118.40545 127 ft 0 kts 82°
2026-04-21 19:30 33.93382 -118.40544 127 ft 0 kts 82°
2026-04-21 19:31 33.93386 -118.40510 127 ft 7 kts 83°
2026-04-21 19:31 33.93393 -118.40438 127 ft 8 kts 83°
2026-04-21 19:31 33.93401 -118.40365 126 ft 9 kts 83°
2026-04-21 19:31 33.93409 -118.40282 126 ft 9 kts 83°
2026-04-21 19:32 33.93417 -118.40203 126 ft 10 kts 83°
2026-04-21 19:32 33.93426 -118.40115 125 ft 10 kts 83°
2026-04-21 19:32 33.93436 -118.40021 123 ft 11 kts 83°
2026-04-21 19:32 33.93446 -118.39925 122 ft 11 kts 83°
2026-04-21 19:33 33.93452 -118.39860 121 ft 11 kts 83°
2026-04-21 19:33 33.93466 -118.39724 118 ft 12 kts 83°
2026-04-21 19:33 33.93477 -118.39615 116 ft 13 kts 83°
2026-04-21 19:33 33.93487 -118.39511 116 ft 12 kts 84°
2026-04-21 19:34 33.93498 -118.39410 114 ft 12 kts 83°
2026-04-21 19:34 33.93508 -118.39305 113 ft 12 kts 83°
2026-04-21 19:34 33.93519 -118.39205 113 ft 11 kts 82°
2026-04-21 19:34 33.93529 -118.39114 113 ft 10 kts 83°
2026-04-21 19:35 33.93539 -118.39017 113 ft 13 kts 84°
2026-04-21 19:35 33.93467 -118.38919 111 ft 6 kts 172°
2026-04-21 19:35 33.93435 -118.38914 111 ft 4 kts 173°
2026-04-21 19:36 33.93409 -118.38910 111 ft 3 kts 173°
2026-04-21 19:36 33.93403 -118.38909 111 ft 0 kts 173°